Flag for United Kingdom Weather past 2 weeks in Brighton, England, United Kingdom

Now
50 °F

Partly sunny.


Feels Like: 48 °F
Forecast: 50 / 61 °F
Wind: 5 mph from Northwest

Location: London / Gatwick Airport

Current Time: Sep 2, 2015 at 7:42:24 AM

Latest Report: Sep 2, 2015 at 7:20 AM


Visibility: N/A

Pressure: 30.07 "Hg

Humidity: 94%

Dew point: 48 °F

Location of BrightonLocation

Historic Weather in Brighton — Graph

°F

Brighton temperature yesterday

Maximum temperature yesterday: 64 °F (at 1:20 PM)
Minimum temperature yesterday: 50 °F (at 11:50 PM)
Average temperature yesterday: 58 °F

Past Weeks' High & Low Weather Summary

 TemperatureHumidityPressure
High82 °F (Aug 22, 3:50 PM)100% (Aug 20, 12:50 AM)30.15 "Hg (Aug 20, 12:50 AM)
Low45 °F (Aug 28, 5:20 AM)45% (Aug 22, 4:20 PM)29.39 "Hg (Aug 24, 1:20 PM)
Average61 °F85%29.91 "Hg
* Reported Aug 18 6:20 AM — Sep 2 6:20 AM, Brighton, Weather by CustomWeather, © 2015

Note: Actual official high and low records may vary slightly from our data, if they occured in-between our weather recording intervals... More about our weather records

Advertising

Brighton weather history for previous 24 hours

 ConditionsComfort  
Time TempWeatherWind HumidityBarometerVisibility
6:20 AM
Wed, Sep 2
46 °FClear.6 mph100%30.07 "Hg5 mi
5:50 AM45 °FClear.3 mph100%30.07 "Hg6 mi
5:20 AM45 °FClear.2 mph100%30.07 "Hg4 mi
4:50 AM45 °FClear.2 mph100%30.07 "Hg5 mi
4:20 AM45 °FClear.3 mph100%30.07 "Hg10 mi
3:50 AM45 °FClear.2 mph100%30.07 "Hg10 mi
3:20 AM45 °FClear.2 mph100%30.07 "Hg5 mi
2:50 AM45 °FClear.3 mph100%30.07 "Hg5 mi
2:20 AM46 °FClear.2 mph100%30.09 "Hg5 mi
1:50 AM46 °FClear.No wind100%30.09 "Hg5 mi
1:20 AM48 °FClear.No wind94%30.09 "Hg5 mi
12:50 AM50 °FClear.2 mph94%30.09 "Hg10 mi
12:20 AM50 °FClear.2 mph100%30.09 "Hg10 mi
11:50 PM
Tue, Sep 1
50 °FClear.2 mph100%30.09 "Hg10 mi
10:20 PM54 °FClear.2 mph94%30.09 "Hg10 mi
9:50 PM54 °FClear.2 mph100%30.09 "Hg10 mi
9:20 PM54 °FClear.2 mph94%30.09 "Hg10 mi
8:50 PM55 °FClear.2 mph88%30.09 "Hg10 mi
8:20 PM55 °FPassing clouds.3 mph88%30.09 "HgN/A
7:50 PM57 °FPassing clouds.5 mph82%30.09 "HgN/A
7:20 PM59 °FScattered showers. Scattered clouds.7 mph77%30.09 "HgN/A
6:50 PM61 °FPassing clouds.7 mph72%30.07 "HgN/A
6:20 PM63 °FPassing clouds.7 mph64%30.07 "HgN/A
5:50 PM64 °FPassing clouds.8 mph60%30.07 "HgN/A
5:20 PM63 °FPassing clouds.3 mph68%30.07 "HgN/A
4:20 PM63 °FPassing clouds.7 mph73%30.07 "HgN/A
3:50 PM63 °FPassing clouds.7 mph73%30.07 "HgN/A
3:20 PM63 °FScattered clouds.6 mph77%30.07 "HgN/A
2:50 PM61 °FScattered clouds.3 mph88%30.09 "HgN/A
2:20 PM57 °FSprinkles. Scattered clouds.5 mph88%30.09 "HgN/A
1:50 PM57 °FMixture of precip. Broken clouds.14 mph88%30.09 "Hg4 mi
1:20 PM64 °FScattered clouds.6 mph73%30.07 "HgN/A
12:50 PM61 °FScattered clouds.6 mph83%30.07 "HgN/A
12:20 PM59 °FScattered clouds.8 mph88%30.07 "HgN/A
11:50 AM59 °FSprinkles. Scattered clouds.8 mph88%30.07 "Hg5 mi
11:20 AM63 °FScattered clouds.9 mph73%30.07 "HgN/A
10:50 AM63 °FScattered clouds.6 mph77%30.07 "HgN/A
10:20 AM59 °FScattered showers. Scattered clouds.10 mph82%30.04 "HgN/A
9:50 AM59 °FScattered clouds.5 mph82%30.04 "HgN/A
9:20 AM59 °FScattered clouds.7 mph82%30.04 "HgN/A
8:50 AM57 °FScattered clouds.8 mph94%30.04 "Hg5 mi
8:20 AM57 °FPartly sunny.8 mph94%30.01 "Hg6 mi
7:50 AM57 °FPartly sunny.8 mph94%30.01 "Hg6 mi
7:20 AM57 °FPartly sunny.8 mph94%30.01 "Hg6 mi
Weather by CustomWeather, © 2015

See weather overviewHow to use our weather pages